Simultaneous Nadir Overpasses (SNOs) Predictions

Prediction of SNOs between FY3D and TERRA Satellite Orbit:

Table of predicted SNOs for the next 14.0 days since TLE Epoch: 7/11/2020
Index Date (FY3D) Time (FY3D) Lat,Lon (FY3D) SZA (FY3D ) Date (TERRA) Time (TERRA) Lat,Lon (TERRA) SZA (TERRA ) Distance(km) Time Diff (sec)
1 07/12/2020 01:59:40 -69.50, -31.41 132.49 07/12/2020 02:00:50 -69.41, -30.16 132.62 49.89 70
2 07/12/2020 02:50:13 68.85, 136.83 46.84 07/12/2020 02:50:25 68.86, 136.77 46.85 2.60 12
3 07/12/2020 03:40:55 -68.76, -55.73 133.25 07/12/2020 03:39:55 -68.75, -55.73 133.26 0.75 60
4 07/14/2020 18:16:08 -69.75, 84.14 131.83 07/14/2020 18:17:16 -69.68, 86.08 131.95 75.17 68
5 07/14/2020 19:06:37 68.89,-107.32 47.28 07/14/2020 19:06:55 68.91,-107.29 47.30 2.25 18
6 07/14/2020 19:57:18 -68.74, 60.20 132.87 07/14/2020 19:56:26 -68.75, 60.14 132.86 2.50 52
7 07/17/2020 11:23:00 68.88, 8.61 47.72 07/17/2020 11:23:27 68.90, 8.56 47.73 2.98 27
8 07/17/2020 12:13:42 -68.78, 176.06 132.38 07/17/2020 12:12:57 -68.80, 176.07 132.36 2.07 45
9 07/20/2020 03:39:24 68.92, 124.47 48.25 07/20/2020 03:39:59 68.94, 124.48 48.26 2.49 35
10 07/20/2020 04:30:06 -68.82, -68.08 131.85 07/20/2020 04:29:30 -68.79, -68.07 131.88 3.18 36
11 07/22/2020 19:55:46 68.91,-119.60 48.76 07/22/2020 19:56:32 68.92,-119.67 48.78 3.48 46
12 07/22/2020 20:46:28 -68.80, 47.85 131.34 07/22/2020 20:46:02 -68.83, 47.84 131.31 3.37 26
